TimeEDT,TemperatureF,Dew PointF,Humidity,Sea Level PressureIn,VisibilityMPH,Wind Direction,Wind SpeedMPH,Gust SpeedMPH,PrecipitationIn,Events,Conditions,WindDirDegrees,DateUTC
12:54 AM,77.0,69.1,76,29.60,10.0,SW,16.1,23.0,N/A,,Mostly Cloudy,220,2013-06-28 04:54:00
1:54 AM,75.9,68.0,76,29.59,10.0,SW,11.5,-,N/A,,Scattered Clouds,220,2013-06-28 05:54:00
2:54 AM,75.0,68.0,79,29.57,10.0,SSW,10.4,-,N/A,,Mostly Cloudy,200,2013-06-28 06:54:00
3:54 AM,73.9,68.0,82,29.56,10.0,SSW,6.9,-,N/A,,Overcast,210,2013-06-28 07:54:00
4:54 AM,75.0,69.1,82,29.55,10.0,SW,9.2,-,N/A,,Mostly Cloudy,220,2013-06-28 08:54:00
5:52 AM,73.4,69.8,88,29.56,10.0,SW,8.1,-,N/A,,Mostly Cloudy,230,2013-06-28 09:52:00
5:54 AM,73.9,70.0,87,29.57,10.0,SW,9.2,-,N/A,,Mostly Cloudy,230,2013-06-28 09:54:00
6:54 AM,75.9,70.0,82,29.57,10.0,SSW,9.2,-,N/A,,Scattered Clouds,210,2013-06-28 10:54:00
7:54 AM,77.0,69.1,76,29.57,10.0,WSW,12.7,-,N/A,,Mostly Cloudy,240,2013-06-28 11:54:00
8:54 AM,78.1,66.9,68,29.56,10.0,WSW,12.7,-,N/A,,Mostly Cloudy,250,2013-06-28 12:54:00
9:54 AM,79.0,66.9,66,29.55,10.0,WSW,13.8,-,N/A,,Mostly Cloudy,240,2013-06-28 13:54:00
10:54 AM,80.1,66.9,64,29.56,10.0,WSW,11.5,-,N/A,,Mostly Cloudy,240,2013-06-28 14:54:00
11:54 AM,82.9,66.9,58,29.57,10.0,WSW,12.7,-,N/A,,Scattered Clouds,250,2013-06-28 15:54:00
12:54 PM,84.0,66.0,55,29.55,10.0,WSW,9.2,-,N/A,,Scattered Clouds,250,2013-06-28 16:54:00
1:54 PM,86.0,66.9,53,29.55,10.0,SSW,11.5,-,N/A,,Scattered Clouds,200,2013-06-28 17:54:00
2:54 PM,86.0,66.0,51,29.52,10.0,SW,11.5,-,N/A,,Mostly Cloudy,220,2013-06-28 18:54:00
3:54 PM,86.0,64.9,49,29.50,10.0,SW,5.8,-,N/A,,Mostly Cloudy,220,2013-06-28 19:54:00
4:08 PM,86.0,64.4,48,29.50,10.0,SW,9.2,-,N/A,Thunderstorm,Thunderstorm,220,2013-06-28 20:08:00
4:39 PM,84.2,64.4,51,29.51,6.0,Variable,3.5,-,0.00,Rain-Thunderstorm,Light Thunderstorms and Rain,0,2013-06-28 20:39:00
4:43 PM,84.2,68.0,58,29.52,2.5,NW,16.1,23.0,0.00,Rain-Thunderstorm,Light Thunderstorms and Rain,310,2013-06-28 20:43:00
4:45 PM,82.4,69.8,66,29.53,0.8,WNW,19.6,23.0,0.00,Rain-Thunderstorm,Heavy Thunderstorms and Rain,300,2013-06-28 20:45:00
4:51 PM,75.2,69.8,83,29.54,1.0,WSW,19.6,40.3,0.11,Rain-Thunderstorm,Heavy Thunderstorms and Rain,240,2013-06-28 20:51:00
4:54 PM,75.9,69.1,79,29.53,1.0,SW,12.7,40.3,0.16,Rain-Thunderstorm,Heavy Thunderstorms and Rain,220,2013-06-28 20:54:00
5:02 PM,71.6,64.4,78,29.52,2.0,SSW,17.3,31.1,0.16,Rain-Thunderstorm,Heavy Thunderstorms and Rain,200,2013-06-28 21:02:00
5:15 PM,69.8,64.4,83,29.53,3.0,SSE,17.3,27.6,0.25,Rain-Thunderstorm,Thunderstorms and Rain,150,2013-06-28 21:15:00
5:31 PM,71.6,64.4,78,29.55,2.0,South,10.4,19.6,0.31,Rain-Thunderstorm,Thunderstorms and Rain,190,2013-06-28 21:31:00
5:36 PM,71.6,64.4,78,29.53,3.0,South,8.1,19.6,0.38,Rain-Thunderstorm,Thunderstorms and Rain,180,2013-06-28 21:36:00
5:40 PM,71.6,66.2,83,29.53,5.0,SSW,6.9,17.3,0.43,Rain-Thunderstorm,Light Thunderstorms and Rain,200,2013-06-28 21:40:00
5:54 PM,71.1,66.0,84,29.52,6.0,SSE,6.9,-,0.43,Rain-Thunderstorm,Light Thunderstorms and Rain,150,2013-06-28 21:54:00
6:14 PM,71.6,68.0,88,29.54,4.0,SW,8.1,-,0.03,Rain-Thunderstorm,Thunderstorms and Rain,220,2013-06-28 22:14:00
6:41 PM,71.6,66.2,83,29.53,6.0,WSW,12.7,-,0.11,Rain-Thunderstorm,Light Thunderstorms and Rain,240,2013-06-28 22:41:00
6:54 PM,72.0,66.0,81,29.54,5.0,SSW,15.0,-,0.12,Rain-Thunderstorm,Light Thunderstorms and Rain,200,2013-06-28 22:54:00
7:00 PM,71.6,66.2,83,29.54,5.0,SSE,12.7,-,0.01,Rain,Rain,160,2013-06-28 23:00:00
7:05 PM,69.8,66.2,88,29.55,3.0,South,11.5,-,0.02,Rain,Rain,180,2013-06-28 23:05:00
7:11 PM,71.6,66.2,83,29.55,6.0,SSW,9.2,-,0.03,Rain,Light Rain,200,2013-06-28 23:11:00
7:17 PM,71.6,66.2,83,29.55,7.0,SSW,6.9,-,0.03,Rain,Light Rain,210,2013-06-28 23:17:00
7:44 PM,71.6,64.4,78,29.52,10.0,Calm,Calm,-,0.03,,Mostly Cloudy,0,2013-06-28 23:44:00
7:54 PM,71.1,66.0,84,29.53,10.0,SSE,9.2,-,0.03,,Mostly Cloudy,160,2013-06-28 23:54:00
8:54 PM,73.0,64.0,73,29.54,10.0,SW,5.8,-,N/A,,Overcast,220,2013-06-29 00:54:00
9:54 PM,72.0,66.0,81,29.57,10.0,SW,8.1,-,N/A,,Mostly Cloudy,220,2013-06-29 01:54:00
10:54 PM,72.0,66.9,84,29.54,10.0,SW,9.2,-,0.00,,Mostly Cloudy,230,2013-06-29 02:54:00
11:54 PM,72.0,66.9,84,29.53,10.0,WSW,6.9,-,N/A,,Overcast,250,2013-06-29 03:54:00